Location: ????
(32.1228°N, 34.8377°E)
Time: 01:31:18
(UTC+00:00)

ADEOS Rocket - Pass Details

Date: 21 September 2020
Orbit: 858 x 1307 km, 98.7° (Epoch: 21 October)

Event Time Altitude Azimuth Distance (km) Brightness Sun altitude
Rises 01:22:28 0° 146° (SE) 4,105 6.4 -27.0°
Reaches altitude 10° 01:25:21 10° 139° (SE) 3,084 5.8 -26.4°
Maximum altitude 01:31:49 41° 72° (ENE) 1,524 4.4 -25.1°
Drops below altitude 10° 01:37:42 10° 4° (N) 2,805 5.6 -23.9°
Sets 01:40:12 0° 357° (N) 3,697 6.2 -23.4°
